sat.trackr.live / text

‹ back to catalog

YAOGAN-35 04C

NORAD 53526 · 2022-100E

PAYLOAD ACTIVE UNKNOWN

§ Identity

Operator
Country
PRC
Launch date
2022-08-19
Launch site
XICLF
Launch vehicle
Mass (kg)
RCS (m²)

External: N2YO · Heavens-Above · Gunter

§ Orbital elements

Epoch: 2026-05-25T05:29:50.506656Z

Period
94.65 min
Inclination
34.9943°
Eccentricity
0.0009857
Mean motion
15.21453611 rev/d
Perigee alt
494.7 km
Apogee alt
508.2 km
Semi-major
6,879.6 km
B*
2.7814e-4
RAAN
220.0624°
Arg perigee
211.6341°
Mean anomaly
148.3781°
Rev number
20,946

§ Raw data

YAOGAN-35 04C1 53526U 22100E   26145.22905679  .00006378  00000+0  27814-3 0  99922 53526  34.9943 220.0624 0009857 211.6341 148.3781 15.21453611209460

JSON: /api/v1/satellites/53526 · /tle

For live sub-satellite position, see the globe view (requires WebGL).

§ Visibility from observer

Set your observer location to see the next 7 days of passes ≥ 10°. The values pass through the URL so the page stays shareable.

No JS? Fill the form by hand. The geolocation button needs JavaScript.